CAPE
2 4 4 3 1 2 3 2 0 1 1 1 3 1 1 1 0 0 0 0 0 0 0 0 0 0 0 0 0 0 0 0 0 0 0 0 0 0 0 0 0 0 0 0 0
2 2 3 2 2 1 3 2 1 1 0 0 0 1 1 0 0 0 0 0 0 0 0 0 0 0 0 0 0 0 0 0 0 0 0 0 0 0 0 0 0 0 0 0 0
0 2 3 1 2 2 1 2 2 2 0 0 0 0 0 0 0 0 0 0 0 0 0 0 0 0 0 0 0 0 0 0 0 0 0 0 0 0 0 0 0 0 0 0 0
0 0 0 2 1 1 2 1 1 2 1 0 0 0 0 0 0 0 0 0 0 0 0 0 0 0 0 0 0 0 0 0 0 0 0 0 0 0 0 0 0 0 0 0 0
0 0 0 0 1 2 1 1 0 1 2 0 0 0 0 0 0 0 0 0 0 0 0 0 0 0 0 0 0 0 0 0 0 0 0 0 0 0 0 0 0 0 0 0 0
0 0 0 0 0 1 1 1 0 0 1 2 0 0 0 0 0 0 0 0 0 0 0 0 0 0 0 0 0 0 0 0 0 0 0 0 0 0 0 0 0 0 0 0 0
0 0 0 0 0 0 1 1 1 0 0 1 2 0 0 0 0 0 0 0 0 0 0 0 0 0 0 0 0 0 0 0 0 0 0 0 0 0 0 0 0 0 0 0 0
0 0 0 0 0 0 1 1 0 1 1 1 1 0 0 0 0 0 0 0 0 0 0 0 0 0 0 0 0 0 0 0 0 0 0 0 0 0 0 0 0 0 0 0 0
0 0 0 0 0 0 0 0 0 1 2 1 0 0 0 0 0 0 0 0 0 0 0 0 0 0 0 0 0 0 0 0 0 0 0 0 0 0 0 0 0 0 0 0 0
0 0 0 0 0 0 1 0 0 0 0 0 0 0 0 0 0 0 0 0 0 0 0 0 0 0 0 0 0 0 0 0 0 0 0 0 0 0 0 0 0 0 0 0 0
0 0 0 0 0 0 0 0 0 0 0 0 0 0 0 0 0 0 0 0 0 0 0 0 0 0 0 0 0 0 0 0 0 0 0 0 0 0 0 0 0 0 0 0 0
0 0 0 0 0 0 0 0 0 0 0 0 0 0 0 0 0 0 0 0 0 0 0 0 0 0 0 0 0 0 0 0 0 0 0 0 0 0 0 0 0 0 0 0 0
0 0 0 0 0 0 0 0 0 0 0 0 0 0 0 0 0 0 0 0 0 0 0 0 1 0 0 0 0 0 0 0 0 0 0 0 0 0 0 0 0 0 0 0 0
0 0 0 2 0 0 0 0 0 0 0 0 0 0 0 0 0 0 0 0 0 0 0 0 0 0 0 0 0 0 0 0 0 0 0 0 0 0 0 0 0 0 0 0 0
0 0 2 5 0 0 0 0 0 0 3 0 0 0 0 0 0 0 0 0 0 0 0 0 0 0 0 0 0 0 0 0 0 0 0 0 0 0 0 0 0 0 0 0 0
0 0 0 0 0 0 0 0 0 1 5 0 0 0 0 0 0 0 0 0 0 0 0 0 1 0 0 0 0 0 0 0 0 0 0 0 0 4 0 0 0 0 0 0 0
0 0 0 0 0 0 0 0 8 7 0 2 1 0 0 1 0 0 0 0 0 0 0 0 1 0 0 0 0 0 2 10 7 11 4 1 0 0 0 0 0 0 0 0 0
0 0 0 0 0 0 0 0 10 0 13 0 0 0 6 5 0 0 0 0 0 0 0 1 1 1 0 0 5 9 23 21 3 4 6 0 0 0 0 2 0 0 0 0 0
0 0 0 0 0 0 0 2 24 10 0 0 0 0 19 18 1 1 9 1 0 1 0 1 5 0 0 0 0 0 3 0 3 4 0 0 0 0 0 19 48 13 3 35 10
0 0 0 0 0 0 6 10 2 0 0 0 0 7 7 12 9 10 20 1 1 0 1 0 2 0 0 0 0 0 0 0 3 7 0 0 0 0 2 5 0 2 3 9 1
0 0 0 0 0 3 13 28 0 3 0 0 3 4 9 9 9 15 16 7 0 0 0 0 6 0 0 0 0 2 0 0 2 3 5 0 0 0 0 0 0 0 1 38 60
0 0 0 0 7 17 1 0 0 1 11 3 1 6 5 8 5 12 11 10 0 0 1 1 8 3 5 1 0 0 0 0 1 13 10 12 0 1 4 0 0 15 21 41 28
0 0 0 0 1 38 1 0 0 1 8 3 3 7 9 6 4 8 14 5 0 0 1 14 16 3 2 8 0 0 0 0 0 2 7 10 0 11 19 15 19 23 41 29 38
0 0 0 0 0 0 0 0 1 2 2 5 4 6 6 5 2 7 10 2 1 0 0 0 0 4 0 0 2 1 2 0 0 14 13 16 16 20 9 15 14 25 39 26 39
0 0 0 0 0 0 0 0 0 0 5 10 6 13 18 15 7 4 9 4 3 0 0 0 1 3 5 2 0 0 0 0 0 0 6 2 6 6 6 5 5 13 13 2 2
0 0 0 0 0 0 0 2 3 3 2 3 8 5 14 10 7 3 10 14 7 6 9 11 15 8 1 3 2 0 0 0 0 0 6 25 24 19 21 23 2 0 0 0 0
10 4 0 0 1 0 2 1 1 5 2 6 7 6 12 8 9 10 12 4 6 11 15 16 25 14 10 11 12 3 15 26 11 8 28 36 31 13 10 1 0 0 1 3 7
CIN
-0 -0 -0 -0 -0 -0 -0 -0 -0 -0 -0 -0 -0 -0 -0 -0 -0 -0 -0 -0 -0 -0 -0 -0 -0 -0 -0 -0 -0 -0 -0 -0 -0 -0 -0 -0 -0 -0 -0 -0 -0 -0 -0 -0 -0
-0 -0 -0 -0 -0 -0 -0 -0 -0 -0 -0 -0 -0 -0 -0 -0 -0 -0 -0 -0 -0 -0 -0 -0 -0 -0 -0 -0 -0 -0 -0 -0 -0 -0 -0 -0 -0 -0 -0 -0 -0 -0 -0 -0 -0
-0 -0 -0 -0 -0 -0 -0 -0 -0 -0 -0 -0 -0 -0 -0 -0 -0 -0 -0 -0 -0 -0 -0 -0 -0 -0 -0 -0 -0 -0 -0 -0 -0 -0 -0 -0 -0 -0 -0 -0 -0 -0 -0 -0 -0
-0 -0 -0 -0 -0 -0 -0 -0 -0 -0 -0 -0 -0 -0 -0 -0 -0 -0 -0 -0 -0 -0 -0 -0 -0 -0 -0 -0 -0 -0 -0 -0 -0 -0 -0 -0 -0 -0 -0 -0 -0 -0 -0 -0 -0
-0 -0 -0 -0 -0 -0 -0 -0 -0 -0 -0 -0 -0 -0 -0 -0 -0 -0 -0 -0 -0 -0 -0 -0 -0 -0 -0 -0 -0 -0 -0 -0 -0 -0 -0 -0 -0 -0 -0 -0 -0 -0 -0 -0 -0
-0 -0 -0 -0 -0 -0 -0 -0 -0 -0 -0 -0 -0 -0 -0 -0 -0 -0 -0 -0 -0 -0 -0 -0 -0 -0 -0 -0 -0 -0 -0 -0 -0 -0 -0 -0 -0 -0 -0 -0 -0 -0 -0 -0 -0
-0 -0 -0 -0 -0 -0 -0 -0 -0 -0 -0 -0 -0 -0 -0 -0 -0 -0 -0 -0 -0 -0 -0 -0 -0 -0 -0 -0 -0 -0 -0 -0 -0 -0 -0 -0 -0 -0 -0 -0 -0 -0 -0 -0 -0
-0 -0 -0 -0 -0 -0 -0 -0 -0 -0 -0 -0 -0 -0 -0 -0 -0 -0 -0 -0 -0 -0 -0 -0 -0 -0 -0 -0 -0 -0 -0 -0 -0 -0 -0 -0 -0 -0 -0 -0 -0 -0 -0 -0 -0
-0 -0 -0 -0 -0 -0 -0 -0 -0 -0 -0 -0 -0 -0 -0 -0 -0 -0 -0 -0 -0 -0 -0 -0 -0 -0 -0 -0 -0 -0 -0 -0 -0 -0 -0 -0 -0 -0 -0 -0 -0 -0 -0 -0 -0
-0 -0 -0 -0 -0 -0 -0 -0 -0 -0 -0 -0 -0 -0 -0 -0 -0 -0 -0 -0 -0 -0 -0 -0 -0 -0 -0 -0 -0 -0 -0 -0 -0 -0 -0 -0 -0 -0 -0 -0 -0 -0 -0 -0 -0
-0 -0 -0 -0 -0 -0 -0 -0 -0 -0 -0 -0 -0 -0 -0 -0 -0 -0 -0 -0 -0 -0 -0 -0 -0 -0 -0 -0 -0 -0 -0 -0 -0 -0 -0 -0 -0 -0 -0 -0 -0 -0 -0 -0 -0
-0 -0 -0 -0 -0 -0 -0 -0 -0 -0 -0 -0 -0 -0 -0 -0 -0 -0 -0 -0 -0 -0 -0 -0 -0 -0 -0 -0 -0 -0 -0 -0 -0 -0 -0 -0 -0 -0 -0 -0 -0 -0 -0 -0 -0
-0 -0 -0 -0 -0 -0 -0 -0 -0 -0 -0 -0 -0 -0 -0 -0 -0 -0 -0 -0 -0 -0 -0 -0 -2 -0 -0 -0 -0 -0 -0 -0 -0 -0 -0 -0 -0 -0 -0 -0 -0 -0 -0 -0 -0
-0 -0 -0 -0 -0 -0 -0 -0 -0 -0 -0 -0 -0 -0 -0 -0 -0 -0 -0 -0 -0 -0 -0 -0 -0 -0 -0 -0 -0 -0 -0 -0 -0 -0 -0 -0 -0 -0 -0 -0 -0 -0 -0 -0 -0
-0 -0 -0 -0 -0 -0 -0 -0 -0 -0 -10 -0 -0 -0 -0 -0 -0 -0 -0 -0 -0 -0 -0 -0 -0 -0 -0 -0 -0 -0 -0 -0 -0 -0 -0 -0 -3 -0 -0 -0 -0 -0 -0 -0 -0
-0 -0 -0 -0 -0 -0 -0 -0 -0 -0 -5 -0 -0 -0 -0 -0 -0 -0 -0 -0 -0 -0 -0 -0 -1 -0 -0 -0 -0 -0 -0 -0 -0 -0 -0 -0 -0 -7 -8 -0 -0 -0 -0 -0 -0
-0 -0 -0 -0 -0 -0 -0 -0 -3 -4 -0 -8 -6 -0 -7 -4 -0 -0 -0 -0 -2 -0 -0 -0 -2 -0 -0 -0 -0 -0 -3 -5 -8 -15 -11 -15 -0 -0 -0 -0 -0 -0 -0 -0 -0
-0 -0 -0 -0 -0 -0 -0 -0 -2 -0 -2 -0 -0 -4 -5 -5 -0 -0 -0 -0 -4 -3 -7 -5 -5 -25 -0 -0 -3 -4 -6 -5 -4 -6 -7 -0 -0 -0 -0 -16 -0 -0 -0 -0 -0
-0 -0 -0 -0 -0 -0 -0 -5 -3 -2 -0 -0 -0 -0 -5 -4 -1 -0 -2 -3 -2 -6 -0 -7 -5 -0 -0 -0 -0 -0 -6 -0 -3 -5 -0 -0 -0 -0 -1 -20 -9 -22 -13 -4 -4
-0 -0 -0 -0 -0 -0 -5 -4 -0 -0 -0 -0 -1 -3 -6 -10 -2 -2 -2 -1 -2 -0 -1 -2 -3 -0 -5 -0 -0 -0 -0 -0 -2 -1 -2 -0 -0 -0 -9 -13 -0 -5 -3 -3 -1
-0 -0 -0 -0 -0 -1 -3 -1 -0 -2 -0 -0 -2 -2 -2 -3 -6 -4 -3 -2 -0 -0 -0 -0 -3 -0 -0 -0 -1 -7 -0 -0 -1 -1 -1 -0 -0 -0 -0 -0 -0 -0 -1 -5 -6
-0 -1 -0 -0 -2 -1 -1 -0 -0 -1 -2 -5 -1 -2 -3 -3 -7 -4 -5 -4 -0 -0 -2 -3 -2 -2 -7 -10 -0 -0 -0 -0 -0 -2 -4 -3 -0 -8 -5 -0 -0 -5 -4 -7 -8
-0 -0 -0 -0 -0 -2 -1 -0 -0 -1 -2 -4 -3 -1 -3 -3 -3 -1 -3 -5 -4 -2 -3 -2 -2 -2 -4 -5 -0 -0 -0 -0 -0 -2 -2 -1 -0 -13 -8 -11 -7 -8 -6 -7 -3
-0 -0 -0 -0 -0 -0 -0 -0 -1 -9 -1 -1 -2 -2 -2 -2 -4 -2 -3 -2 -1 -0 -0 -0 -0 -3 -3 -0 -4 -6 -1 -0 -0 -1 -3 -4 -6 -6 -7 -8 -6 -4 -4 -6 -5
-0 -0 -0 -0 -0 -0 -0 -0 -0 -0 -1 -1 -1 -1 -0 -0 -2 -6 -6 -6 -1 -0 -0 -0 -2 -3 -5 -3 -0 -0 -0 -0 -0 -5 -4 -4 -9 -7 -11 -13 -17 -7 -13 -11 -5
-0 -0 -0 -0 -0 -0 -0 -1 -0 -0 -0 -0 -0 -2 -1 -0 -2 -0 -1 -1 -2 -4 -4 -3 -1 -3 -4 -3 -4 -0 -0 -0 -0 -0 -6 -8 -7 -7 -6 -6 -8 -0 -0 -0 -0
-1 -1 -0 -0 -1 -0 -1 -1 -1 -0 -0 -0 -1 -0 -1 -1 -0 -0 -0 -0 -0 -1 -1 -0 -0 -4 -2 -4 -5 -5 -4 -3 -9 -4 -4 -5 -3 -8 -8 -4 -0 -0 -0 -0 -1
Wind_Speed
34 34 33 33 32 31 30 29 28 26 26 24 24 23 22 20 11 6 4 5 10 21 22 27 22 27 30 33 33 32 44 50 49 45 47 37 35 34 36 35 32 27 29 26 24
35 35 34 34 33 32 30 29 28 26 25 25 24 23 22 19 8 2 2 7 7 14 19 27 21 23 29 30 31 32 41 44 37 39 44 42 37 37 37 40 39 35 31 27 26
35 36 35 35 34 32 31 29 28 26 25 24 23 22 21 17 10 12 11 7 6 4 28 26 23 26 30 28 28 32 41 33 33 29 30 32 34 30 36 43 41 40 36 31 30
36 36 36 36 35 34 32 30 28 26 25 24 23 22 21 11 15 16 13 10 10 11 27 25 26 29 28 29 28 31 32 38 30 27 33 35 35 37 34 39 34 37 38 38 36
36 37 37 37 36 35 33 31 29 26 25 24 23 23 19 8 4 15 13 13 14 15 9 23 28 29 27 26 26 27 28 27 31 29 28 30 33 36 38 31 28 29 34 36 38
38 38 38 38 37 36 35 33 27 24 23 22 22 22 14 3 14 11 11 12 12 17 19 20 24 27 28 27 24 23 30 24 27 29 28 29 31 30 29 23 25 24 24 27 28
40 40 39 39 38 37 36 34 29 18 18 19 19 18 13 5 15 9 10 12 13 16 23 26 22 23 24 24 23 22 23 25 26 26 27 26 33 32 32 28 28 28 29 29 30
40 41 40 39 38 37 36 34 11 11 11 11 15 15 12 14 10 5 9 11 11 18 23 17 22 26 25 19 19 24 23 30 21 20 22 23 32 19 19 21 24 26 27 28 29
36 36 35 37 37 38 34 28 12 8 8 10 15 9 16 13 5 5 8 9 10 14 11 19 22 26 18 23 22 18 27 21 14 17 23 19 27 18 19 25 26 29 31 30 31
33 34 33 35 35 37 36 30 16 14 10 9 9 13 15 9 7 4 6 6 7 10 14 16 18 20 20 21 22 22 19 24 23 21 20 28 32 29 30 32 33 32 31 29 31
28 32 33 30 33 32 31 12 13 14 7 7 11 6 12 12 9 5 4 4 7 6 13 10 19 22 25 20 29 26 27 26 25 21 28 32 34 32 30 31 32 31 31 30 28
29 31 32 31 30 29 5 8 20 18 18 4 4 4 3 11 6 4 4 3 2 7 8 14 11 24 27 28 29 30 29 29 28 27 29 33 36 36 35 35 35 35 32 31 30
26 27 31 30 28 8 8 5 11 18 13 13 10 8 4 7 6 3 1 1 5 3 8 5 11 16 20 21 12 18 32 32 31 29 32 35 39 34 28 25 25 24 27 30 31
27 27 29 27 13 18 14 17 12 16 18 11 10 13 9 9 5 5 2 5 14 13 9 17 21 11 12 11 5 13 17 24 23 23 32 30 41 37 35 32 25 26 25 26 30
32 36 35 20 19 16 19 15 17 14 18 12 15 13 11 8 12 6 7 2 12 11 18 16 14 14 16 18 15 22 26 24 29 36 39 31 34 31 26 25 26 21 24 28 32
30 30 26 18 14 13 15 14 13 14 17 15 14 10 8 6 8 9 5 2 13 20 16 29 22 20 22 25 25 26 30 34 32 26 27 26 26 29 22 25 28 27 32 36 38
31 25 7 15 18 18 15 12 13 16 17 16 13 10 6 7 5 9 8 5 8 15 20 23 34 26 15 27 22 18 27 37 34 21 25 25 29 29 32 27 24 29 31 32 33
32 21 15 12 13 16 13 11 16 18 18 16 16 15 13 12 8 11 14 16 11 23 31 30 29 23 17 21 30 30 24 28 35 37 40 39 36 31 23 19 21 25 29 31 32
29 16 15 16 15 14 14 11 19 21 20 21 22 14 12 13 17 12 17 17 18 19 24 25 26 17 21 25 22 23 24 24 31 33 36 30 25 19 20 17 22 25 28 29 31
26 15 17 17 13 14 11 14 18 17 22 21 21 21 20 12 9 14 14 16 16 23 24 22 32 25 19 20 22 21 27 28 21 29 32 26 32 32 24 27 27 30 35 32 31
17 15 19 18 12 10 12 19 19 19 22 22 25 25 24 23 15 11 13 14 11 13 16 21 27 29 22 23 23 13 16 15 17 19 26 33 25 27 30 29 28 30 33 33 36
16 17 21 18 11 13 16 19 20 21 20 25 21 23 25 21 17 10 13 9 13 19 22 22 22 27 27 23 21 24 26 25 22 22 18 21 20 17 18 16 17 20 31 34 38
21 17 18 14 17 15 18 20 16 20 22 21 22 22 24 26 25 17 9 12 16 18 20 18 21 29 27 10 13 18 15 16 15 16 15 16 12 31 22 22 22 29 31 27 28
19 20 17 17 16 19 22 20 19 17 22 21 21 24 26 24 14 17 16 9 13 17 19 22 25 27 31 28 22 23 20 14 12 12 9 24 28 35 41 18 38 39 35 36 38
19 19 20 19 18 21 19 21 21 22 19 22 20 21 24 22 26 15 14 11 12 16 22 22 30 29 34 36 37 34 20 9 16 21 31 30 23 19 28 38 33 40 37 37 39
21 21 19 19 19 19 16 19 21 20 22 22 23 27 24 24 25 28 25 20 14 21 23 19 27 28 31 31 32 11 7 25 26 29 30 27 33 26 39 36 38 40 44 33 35
18 16 17 18 17 18 19 18 19 20 22 17 22 26 23 26 24 21 20 18 26 29 27 26 25 27 31 30 26 20 11 26 27 29 34 33 27 45 40 38 36 42 36 29 31
Wind_Direction
348 345 344 340 335 329 327 322 323 325 325 327 330 334 340 348 359 354 346 14 8 314 291 258 257 248 247 245 245 249 247 247 249 253 254 259 256 262 263 266 272 273 274 283 299
350 351 350 348 342 333 326 323 324 326 326 324 327 333 341 355 7 260 154 29 15 331 279 235 253 246 241 243 244 247 246 250 257 259 257 259 259 267 265 261 262 267 274 281 285
347 349 347 349 343 330 326 324 327 325 328 327 330 335 344 4 25 43 42 76 90 36 232 240 248 238 241 245 244 248 249 256 258 265 266 264 268 274 267 261 263 264 269 277 275
343 343 344 342 341 338 331 327 324 326 326 329 330 333 340 21 27 25 24 93 104 126 221 239 234 229 243 243 248 252 258 255 264 269 266 266 272 270 271 269 275 271 271 271 270
333 336 341 341 339 336 333 323 322 325 325 326 329 326 340 27 58 21 46 70 100 125 116 243 225 226 243 249 252 255 262 264 266 269 271 273 271 273 272 281 283 281 276 274 270
326 331 336 338 335 332 327 327 334 331 330 327 327 323 349 71 1 34 77 87 96 140 158 257 244 237 247 251 252 265 257 270 269 269 272 274 276 276 280 287 285 285 285 282 278
322 324 328 329 326 322 322 318 333 346 337 334 329 334 339 173 349 34 96 125 139 151 207 216 267 249 251 253 259 268 268 269 269 272 274 280 276 276 278 280 282 285 287 285 281
319 318 322 317 314 309 308 300 3 1 358 355 340 338 342 344 347 51 117 130 126 250 246 274 250 252 251 273 271 267 274 270 276 273 278 280 277 290 295 282 284 284 286 287 285
304 302 298 304 303 308 296 281 252 18 24 3 342 348 332 345 15 97 112 109 113 135 216 275 261 250 274 265 271 277 271 275 278 280 280 276 283 298 294 287 287 287 287 286 283
299 298 294 295 294 301 304 294 7 32 36 65 351 343 314 352 32 59 95 29 83 117 147 158 170 258 271 269 271 281 275 275 280 288 286 282 281 285 286 286 286 286 287 288 285
296 298 296 289 290 287 292 23 21 16 47 14 7 55 10 337 355 16 81 55 98 104 154 133 175 183 202 279 271 286 280 282 287 295 289 285 286 289 292 291 289 291 288 287 288
297 297 295 290 284 281 4 55 356 356 344 164 162 163 90 345 9 10 85 53 49 136 137 165 162 206 251 256 255 262 277 280 285 290 290 289 287 290 290 289 289 289 290 289 288
297 295 295 290 282 348 67 66 297 3 6 19 20 15 53 129 99 82 31 142 319 336 160 161 291 304 293 277 244 233 246 260 275 288 287 290 287 292 297 298 300 298 296 293 291
300 299 296 291 9 10 24 8 37 12 349 33 39 26 50 92 14 59 10 309 299 303 308 295 271 317 324 324 328 311 307 296 303 305 289 297 274 285 292 295 299 299 300 299 297
305 309 309 9 3 22 1 22 10 37 336 29 18 41 80 73 23 81 115 126 303 313 294 302 309 301 303 305 317 296 302 303 298 284 281 298 293 303 302 299 302 309 308 306 302
304 305 304 35 52 44 40 42 47 7 340 4 21 42 61 82 28 23 71 104 319 295 298 272 293 293 291 292 298 299 295 290 295 301 295 304 299 303 315 310 306 311 310 306 302
303 295 13 46 20 26 41 59 20 358 4 352 11 25 21 13 7 8 345 321 309 302 294 294 274 286 298 290 302 308 302 289 290 298 301 314 305 307 308 314 313 310 313 314 314
303 281 43 62 50 28 36 37 2 359 352 2 353 352 340 344 350 343 329 304 309 294 285 285 284 293 297 299 290 295 300 298 295 294 293 301 303 308 325 322 316 317 314 314 312
299 31 33 26 39 43 22 18 350 350 350 344 336 344 337 340 324 335 320 309 303 308 292 290 286 305 299 299 309 311 298 310 302 304 303 310 313 316 323 328 320 326 321 321 320
355 24 15 16 34 26 22 356 351 354 340 339 333 336 328 350 351 340 331 327 303 295 300 300 284 298 306 314 305 304 305 305 314 311 311 321 319 317 326 322 320 316 318 320 320
21 19 6 8 27 22 7 349 343 343 336 334 318 316 319 321 337 341 344 343 334 320 314 306 292 287 303 302 305 314 316 318 320 316 316 319 326 334 331 330 327 326 324 321 318
23 11 3 8 16 13 359 352 345 335 333 325 330 322 316 329 328 326 329 328 334 312 304 308 304 291 293 300 313 304 305 307 309 318 320 320 321 330 347 344 338 329 329 325 321
358 4 14 20 1 357 355 348 350 338 333 333 328 327 326 316 318 332 320 333 323 313 313 314 303 290 298 306 321 321 322 320 319 319 310 313 298 305 258 325 329 327 329 327 328
6 357 12 16 12 351 341 344 344 349 335 334 332 326 320 320 324 325 336 347 327 316 309 303 294 291 282 283 310 311 320 324 322 313 303 240 254 266 295 295 325 324 324 322 320
4 358 357 353 1 350 348 337 335 333 340 336 339 336 327 324 318 322 316 325 326 312 300 297 285 288 281 280 284 294 314 303 230 231 244 252 257 276 328 330 330 325 326 322 319
350 354 359 346 353 352 356 347 337 336 334 331 329 325 330 323 317 311 316 319 311 303 294 300 290 288 284 287 289 308 285 234 232 242 247 256 267 331 324 329 329 329 326 322 317
359 9 2 354 352 352 350 348 343 339 336 340 332 329 330 326 324 324 313 300 287 280 280 285 288 284 280 283 298 318 301 261 250 289 290 270 270 314 327 332 333 329 324 301 293